Regional Weather Roundup
Issued by NWS

Home | Current Version | Previous Version | Graphics & Text | Print | Product List | Glossary On
Versions: 1 2 3 4 5 6 7 8 9 10 11 12 13 14 15 16 17 18 19 20 21 22 23 24 25 26 27 28 29 30 31 32 33 34 35 36 37 38 39 40 41 42 43 44 45 46 47 48 49 50
404
ASUS43 KMKX 201611
RWRWI

WISCONSIN REGIONAL WEATHER ROUNDUP
NATIONAL WEATHER SERVICE MILWAUKEE/SULLIVAN WI
1000 AM CST FRI JAN 20 2017

NOTE: "FAIR" INDICATES FEW OR NO CLOUDS BELOW 12,000 FEET WITH NO
SIGNIFICANT WEATHER AND/OR OBSTRUCTIONS TO VISIBILITY.

WIZ001-002-006>008-014>016-023>028-201700-
NORTHWEST WISCONSIN

CITY           SKY/WX    TMP DP  RH WIND       PRES   REMARKS
SUPERIOR ARPT  DRIZZLE   35  35 100 E9        29.67F WCI  27
ASHLAND        CLOUDY    37  31  78 CALM      29.70S
HAYWARD        LGT RAIN  37  33  85 SE6       29.65F WCI  32
SIREN          DRIZZLE   36  35  98 SE5       29.64F WCI  32
CUMBERLAND     CLOUDY    34  32  93 SE7       29.64F FOG     WCI  28
RICE LAKE      LGT RAIN  35  35  99 E5        29.67S WCI  31
CHETEK         NOT AVBL
LADYSMITH      RAIN      35  34  95 E3        29.67F
EAU CLAIRE     CLOUDY    35  35 100 E6        29.65S FOG     WCI  30
MENOMONIE        N/A    N/A N/A N/A MISG        N/A
NEW RICHMOND   CLOUDY    35  35 100 SE6       29.63F WCI  30
OSCEOLA        CLOUDY    36  36 100 SE8       29.65S WCI  29
$$

WIZ003>005-009-010-017-018-201700-
NORTH CENTRAL WISCONSIN

CITY           SKY/WX    TMP DP  RH WIND       PRES   REMARKS
MANITOWISH WTR CLOUDY    32  32 100 CALM      29.66F FOG
ARBOR VITAE    MIX PCPN  34  33  94 CALM      29.67R
WOODRUFF       MIX PCPN  34  33  94 CALM      29.67R
RHINELANDER    LGT RAIN  34  33  96 CALM      29.68R FOG
EAGLE RIVER    PTSUNNY   33  32  95 CALM      29.67R FOG
LAND O LAKES   CLOUDY    33  32  95 S3        29.69R
PHILLIPS       CLOUDY    34  34 100 CALM      29.65F FOG
TOMAHAWK       DRIZZLE   34  33  96 CALM      29.67F
MEDFORD        DRIZZLE   34  33  97 E5        29.65S WCI  30
MERRILL        DRIZZLE   35  35 100 E3          N/A
$$

WIZ029-030-035-036-043>047-201700-
CENTRAL WISCONSIN

CITY           SKY/WX    TMP DP  RH WIND       PRES   REMARKS
WAUSAU         CLOUDY    34  33  96 E7        29.66F FOG     WCI  28
MOSINEE        CLOUDY    30  30 100 E6        29.68S FOG     WCI  24
MARSHFIELD     LGT RAIN  34  32  92 E7        29.65S FOG     WCI  28
STEVENS POINT  DRIZZLE   32  32 100 E6        29.68S WCI  26
WAUPACA        CLOUDY    36  35  96 CALM      29.69S FOG
WAUTOMA        CLOUDY    34  33  96 NE7       29.68F FOG     WCI  28
WISC RAPIDS    LGT RAIN  35  34  96 E7        29.68S WCI  29
CAMP DOUGLAS   FOG       34  34 100 E5        29.66S VSB 3/4 WCI  30
$$

WIZ011>013-019>022-031-037>040-048>050-201700-
NORTHEAST WISCONSIN

CITY           SKY/WX    TMP DP  RH WIND       PRES   REMARKS
ANTIGO         CLOUDY    32  32 100 E3        29.68S FOG
SHAWANO        CLOUDY    34  33  95 CALM      29.71S FOG
OCONTO         NOT AVBL
STURGEON BAY   LGT RAIN  34  33  96 N6        29.72F VSB 1/4 WCI  29
GREEN BAY      FOG       35  35 100 NE13      29.70S VSB 1/2 WCI  26
MANITOWOC      LGT RAIN  36  35  96 VRB5      29.70S FOG     WCI  32
APPLETON       FOG       34  34 100 NE7       29.68R VSB 1   WCI  28
CLINTONVILLE   DRIZZLE   32  32 100 NE6       29.70S WCI  26
OSHKOSH        LGT RAIN  34  33  96 NE8       29.68R FOG     WCI  27
$$

WIZ032>034-041-042-053>061-201700-
SOUTHWEST WISCONSIN

CITY           SKY/WX    TMP DP  RH WIND       PRES   REMARKS
LA CROSSE      CLOUDY    38  35  89 SE5       29.64F FOG     WCI  34
SPARTA         CLOUDY    34  34 100 E6        29.66S FOG     WCI  29
VIROQUA        CLOUDY    35  35 100 E7        29.63S VSB 3/4 WCI  29
BOSCOBEL       CLOUDY    37  36  96 NE3       29.65S FOG
PRAIRIE DU CHI CLOUDY    37  36  96 CALM      29.65R FOG
PLATTEVILLE    CLOUDY    36  36 100 SE6       29.65R VSB 3/4 WCI  31
$$

WIZ056-057-062-063-064-067-068-201700-
SOUTH CENTRAL WISCONSIN

CITY           SKY/WX    TMP DP  RH WIND       PRES   REMARKS
REEDSBURG      CLOUDY    34  34 100 E3        29.65S FOG
BARABOO/DELLS  FOG       34  34  99 E5        29.65S VSB 1   WCI  30
LONE ROCK      CLOUDY    37  35  92 E6        29.65F FOG     WCI  32
MINERAL POINT  FOG       37  37 100 E5        29.64R VSB 3/4 WCI  34
MADISON        LGT RAIN  36  35  96 E6        29.66S VSB 1   WCI  31
MIDDLETON      CLOUDY    37  37 100 E3        29.66S VSB 1/2
WATERTOWN      CLOUDY    37  37 100 E3        29.66R FOG
MONROE         FOG       36  36 100 E6        29.63S VSB<1/4 WCI  31
JANESVILLE     CLOUDY    37  37 100 NE6       29.65R FOG     WCI  33
$$

WIZ051-052-058>065-066-070>072-201700-
SOUTHEAST WISCONSIN

CITY           SKY/WX    TMP DP  RH WIND       PRES   REMARKS
MILWAUKEE      CLOUDY    39  37  92 NE9       29.67R FOG     WCI  33
WAUKESHA       CLOUDY    36  36 100 NE7       29.67R FOG     WCI  30
MILWAUKEE/TIMM CLOUDY    36  34  93 NE6       29.67R FOG     WCI  31
RACINE         CLOUDY    38  36  92 NE8       29.69R FOG     WCI  32
KENOSHA        FOG       38  37  97 E9        29.67R VSB 3/4 WCI  31
FOND DU LAC    LGT RAIN  36  33  89 NE6       29.68R FOG     WCI  31
SHEBOYGAN      FOG       36  35  96 NE9       29.69R VSB 1/2 WCI  29
WEST BEND      CLOUDY    36  36 100 E7        29.67R FOG     WCI  30
JUNEAU         DRIZZLE   36  35  96 NE7       29.67S WCI  30
$$

LSZ147-162-201700-
LAKE SUPERIOR

STATION/POSITION TIME  TEMP    WIND        PRES    WAVE
                       AIR SEA DIR/SP/G            HT/PER
                 (UTC) (F)     (DEG/KT/KT) (MB)    (FT/S)
DEVILS ISLAND    1600   34     360/  3/  4 1005.7F
PORT WING        1530   35      60/  1/  2 1005.8S
SAXON HARBOR     1540   34     230/  2/  2 1005.4F
$$

LMZ867-665-643>646-201700-
LAKE MICHIGAN

STATION/POSITION TIME  TEMP    WIND        PRES    WAVE
                       AIR SEA DIR/SP/G            HT/PER
                 (UTC) (F)     (DEG/KT/KT) (MB)    (FT/S)
NORTHPORT PIER   1540   34      40/  5/  7 1007.1S
SISTER BAY       1550   35        CALM       N/A
KEWAUNEE LAKESHO 1548   35      20/  9/ 11 1005.5F
SHEBOYGAN LAKESH 1600   35      10/  7/  8 1005.7R
PORT WASHINGTON  1540   36      40/  8/  9 1006.4R
KENOSHA   LAKESH 1600   35      CALM  /  2 1005.4
$$

TC  - TEMPERATURE IN CELSIUS
VSB - VISIBILITY IN STATUTE MILES
WCI - WIND CHILL INDEX
HX  - HEAT INDEX





USA.gov is the U.S. government's official web portal to all federal, state and local government web resources and services.